STARLINK-35862, 66628

Orbit data source: Space-Track

STARLINK-35862, 66628 is a payload satellite owned by SpaceX/Seattle (US) in LEO that was launched on Sun, 23 Nov 2025 UTC via an FALCON 9 launch vehicle from the Air Force Western Test Range (AFWTR). Payload-class satellites include a variety of spacecraft equipped with specific instruments for various scientific and technological missions. These include communications satellites like Starlink; space stations such as the ISS; scientific satellites like the Hubble; Earth observation satellites from companies like Planet Labs, Umbra, and HawkEye 360; GPS; miniature CubeSats for education and research; and military/defense satellites.

Loading next visibility...
Identifier
66628, 2025-271M
Orbit
LEO
Country
Flag of USUS
Related business
Manufacturer
SpaceX/Seattle
Mission
Operational Commercial Communications
Bus & Motor
STARLINK V2MO, Unknown motor
Mass
575 kg wet, ~530 kg dry
Launch date (UTC)
2025-11-23 (5 months ago)
Launch vehicle
FALCON 9
Launch site
Air Force Western Test Range (AFWTR)
Object type
Payload
Rocket body
Debris
Shape & HBR
Box + 2 Pan, 17.7 m
Radar Cross Section
36.964 m²

Expand to show TLE details & history
Last TLE update: 7 hours ago

TLE from 7 hours ago
0 STARLINK-35862
1 66628U 25271M   26128.25002315  .00052520  00000-0  15549-2 0  9992
2 66628  53.1591 222.3038 0000565  89.7931 117.4179 15.34395093  5802
Epoch: 2026-05-08T06:00Z
TLE epoch observation values (Epoch: 2026-05-08T06:00:02.000Z)
Latitude
-21.65843°
Longitude
103.4207°
Altitude
469.003 km
Speed
7.632 km/s
True Right ascension
03h 58m 03s
True Declination
-21° 32' 09"
Sunlit
Object was in daylight at epoch
Visualization orbit readout
Latitude
Unknown
Longitude
Unknown
Altitude
Unknown
Speed
Unknown
Apparent Right ascension
Unknown
Apparent Declination
Unknown
Sunlit
N/A
Visualization observer readout
Local Sidereal Time
20:51:27
Azimuth
Unknown
Elevation
Unknown
Doppler factor
Unknown
Orbital elements
Apogee altitude
463.361 km
Perigee altitude
462.588 km
Semi-major axis
6,841.112 km
Eccentricity
0.00006
Inclination
53.1591°
RAAN
222.3038°
Arg. of periapsis
89.7931°
True anomaly
117.42365°
Mean anomaly
117.4179°
Eccentric anomaly
117.42077°
Mean motion
3.83578 °/min
Orbital period
93.85 mins
BSTAR
0.0015549
Loading maneuver chart data...
Computing Atmospheric mass density...
Loading historical data...
Loading historical data...
Loading historical data...
Loading historical data...
Loading historical data...
Loading historical data...
Loading historical data...

Documentation

Showing up to 5 results
|